Mineral Wells, TX

5:16 PM CST on February 22, 2017 (GMT -0600)
Mineral Wells

Weather History for KMWL - November, 2012

Change the Weather History Date:

Tuesday, November 27, 2012

  Actual Average Record
Temperature  
Mean Temperature 44 °F -  
Max Temperature 54 °F 61 °F 80 °F (1999)
Min Temperature 34 °F 39 °F 24 °F (2010)
Degree Days  
Heating Degree Days 21    
Moisture  
Dew Point 30 °F    
Average Humidity 62    
Maximum Humidity 93    
Minimum Humidity 41    
Precipitation  
Precipitation 0.00 in - - ()
Sea Level Pressure  
Sea Level Pressure 30.36 in    
Wind  
Wind Speed 10 mph (North)    
Max Wind Speed 16 mph    
Max Gust Speed -    
Visibility 10 miles    
Events      
Averages and records for this station are not official NWS values.
T = Trace of Precipitation, MM = Missing Value Source: NWS Daily Summary

Daily Weather History Graph

Daily Weather History Graph

Search for Another Location

Airport or City:

Trip Planner

Search our weather history database for the weather conditions in past years. The results will help you decide how hot, cold, wet, or windy it might be!

Date:

Astronomy

Nov. 27, 2012 Rise Set
Actual Time 7:13 AM CST 5:26 PM CST
Civil Twilight 6:46 AM CST 5:53 PM CST
Nautical Twilight 6:16 AM CST 6:23 PM CST
Astronomical Twilight 5:46 AM CST 6:53 PM CST
Moon 4:58 PM CST (11/27) 6:21 AM CST (11/27)
Length of Visible Light 11h 06m
Length of Day
10h 12m
Waxing Gibbous, 99% of the Moon is Illuminated
Nov 27
Waxing Gibbous
Nov 28
Full
Dec 6
Last Quarter
Dec 13
New
Dec 19
First Quarter

Hourly Weather History & Observations

Time (CST) Temp. Windchill Dew Point Humidity Pressure Visibility Wind Dir Wind Speed Gust Speed Precip Events Conditions
12:53 AM 45.0 °F 37.9 °F 28.0 °F 52% 30.31 in 10.0 mi North 16.1 mph - N/A   Scattered Clouds
1:53 AM 43.0 °F 35.7 °F 25.0 °F 49% 30.30 in 10.0 mi North 15.0 mph - N/A   Clear
2:53 AM 41.0 °F 34.7 °F 24.1 °F 51% 30.32 in 10.0 mi NNW 10.4 mph - N/A   Mostly Cloudy
3:08 AM 41.0 °F 34.7 °F 24.8 °F 53% 30.33 in 10.0 mi NNW 10.4 mph - N/A   Scattered Clouds
3:53 AM 39.0 °F 31.4 °F 25.0 °F 57% 30.34 in 10.0 mi NNW 12.7 mph - N/A   Clear
4:53 AM 37.0 °F 29.3 °F 25.0 °F 62% 30.35 in 10.0 mi NNW 11.5 mph - N/A   Clear
5:53 AM 36.0 °F 28.0 °F 25.0 °F 64% 30.37 in 10.0 mi NNW 11.5 mph - N/A   Clear
6:53 AM 34.0 °F 26.0 °F 25.0 °F 70% 30.38 in 10.0 mi NNW 10.4 mph - N/A   Clear
7:53 AM 35.1 °F 26.9 °F 25.0 °F 67% 30.40 in 10.0 mi NNW 11.5 mph - N/A   Clear
8:53 AM 37.9 °F 29.6 °F 27.0 °F 65% 30.43 in 10.0 mi North 13.8 mph - N/A   Clear
9:53 AM 42.1 °F 36.1 °F 27.0 °F 55% 30.46 in 10.0 mi North 10.4 mph - N/A   Clear
10:23 AM 42.8 °F 40.1 °F 28.4 °F 57% 30.45 in 10.0 mi North 4.6 mph - N/A   Mostly Cloudy
10:53 AM 43.0 °F 39.5 °F 30.0 °F 60% 30.44 in 10.0 mi North 5.8 mph - N/A   Overcast
11:53 AM 45.0 °F 42.6 °F 34.0 °F 65% 30.43 in 10.0 mi Variable 4.6 mph - N/A   Overcast
12:49 PM 48.2 °F - 33.8 °F 58% 30.39 in 10.0 mi Variable 4.6 mph - N/A   Partly Cloudy
12:53 PM 48.9 °F - 34.0 °F 56% 30.38 in 10.0 mi Calm Calm - N/A   Partly Cloudy
1:53 PM 51.8 °F - 33.8 °F 50% 30.35 in 10.0 mi Variable 5.8 mph - N/A   Clear
2:53 PM 54.0 °F - 32.0 °F 43% 30.33 in 10.0 mi Variable 3.5 mph - N/A   Clear
3:53 PM 54.0 °F - 30.9 °F 41% 30.32 in 10.0 mi Calm Calm - N/A   Clear
4:53 PM 53.1 °F - 30.9 °F 43% 30.31 in 10.0 mi Calm Calm - N/A   Clear
6:53 PM 45.0 °F 41.2 °F 34.0 °F 65% 30.32 in 10.0 mi SE 6.9 mph - N/A   Clear
7:53 PM 42.1 °F 37.1 °F 35.1 °F 76% 30.33 in 10.0 mi SSE 8.1 mph - N/A   Clear
8:53 PM 41.0 °F 34.7 °F 35.1 °F 79% 30.33 in 10.0 mi SSE 10.4 mph - N/A   Clear
9:53 PM 39.0 °F 33.4 °F 35.1 °F 86% 30.33 in 10.0 mi SE 8.1 mph - N/A   Clear
10:53 PM 37.9 °F 32.7 °F 35.1 °F 89% 30.34 in 10.0 mi SSE 6.9 mph - N/A   Clear
11:53 PM 36.0 °F 32.1 °F 34.0 °F 93% 30.34 in 10.0 mi ESE 4.6 mph - N/A   Clear